Regional Weather Roundup
Issued by NWS Sioux Falls, SD

Home | Current Version | Previous Version | Graphics & Text | Print | Product List | Glossary On
Versions: 1 2 3 4 5 6 7 8 9 10 11 12 13 14 15 16 17 18 19 20 21 22 23 24 25 26 27 28 29 30 31 32 33 34 35 36 37 38 39 40 41 42 43 44 45 46 47 48 49 50
000
ASUS43 KFSD 281102
RWRFSD

WEATHER ROUNDUP FOR SE SOUTH DAKOTA/SW MINNESOTA/NW IOWA
NATIONAL WEATHER SERVICE SIOUX FALLS SD
600 AM CDT SAT MAY 28 2016

NOTE: "FAIR" INDICATES FEW OR NO CLOUDS BELOW 12,000 FEET WITH NO
SIGNIFICANT WEATHER AND OR OBSTRUCTIONS TO VISIBILITY.


SDZ038>040-050-052>070-281200-
SOUTHEAST SOUTH DAKOTA

CITY           SKY/WX    TMP DP  RH WIND       PRES   REMARKS
BROOKINGS      CLOUDY    60  59  96 E9        29.74S FOG
CHAMBERLAIN    NOT AVBL
HURON          CLOUDY    58  57  97 N8        29.75S
MADISON        LGT RAIN  59  59 100 E12       29.74S
MITCHELL       RAIN      60  59  96 NW6       29.76S FOG
SIOUX FALLS    LGT RAIN  61  60  97 N8        29.73S FOG
WINNER         FAIR      56  53  90 NW5       29.79R
YANKTON        CLOUDY    59  55  88 NW12      29.71S
$$

MNZ071-072-080-081-089-090-097-098-281200-
SOUTHWEST MINNESOTA

CITY           SKY/WX    TMP DP  RH WIND       PRES   REMARKS
FAIRMONT       CLOUDY    64  61  88 E5        29.74R
JACKSON        CLOUDY    64  61  88 CALM      29.75R
LUVERNE        LGT RAIN  61  59  94 W7        29.73F
MARSHALL       CLOUDY    60  58  92 N7        29.75F FOG
MONTEVIDEO     CLOUDY    59  57  94 E6        29.78R
PIPESTONE      RAIN      61  57  88 CALM      29.75S
REDWOOD FALLS  CLOUDY    60  57  89 NE7       29.75S FOG
TRACY          LGT RAIN  60  60  99 E7        29.74F
WINDOM         LGT RAIN  63  61  94 CALM      29.74S
WORTHINGTON    RAIN      62  61  96 CALM      29.75R FOG
$$

IAZ001>003-012>014-020>022-031-032-NEZ013-014-SDZ071-281200-
NORTHWEST IOWA

CITY           SKY/WX    TMP DP  RH WIND       PRES   REMARKS
ESTHERVILLE    CLOUDY    64  63  96 CALM      29.74R
SIOUX CITY     LGT RAIN  63  60  90 S8        29.72R
SPENCER        LGT RAIN  63  61  93 NE5       29.74R
STORM LAKE     MOCLDY    63  61  94 S8        29.73F
$$

ABBREVIATIONS USED IN REMARKS
   TC - TEMPERATURE IN CELSIUS
  WCI - WIND CHILL INDEX
   HX - HEAT INDEX
  VSB - VISIBILITY





USA.gov is the U.S. government's official web portal to all federal, state and local government web resources and services.